Terug naar catalogus

STARLINK-34447

ActiefCommunicatieVLEO
NORAD 64710·PAYLOAD·🇺🇸 United States

Gelanceerd Jun 28, 2025 vanaf Vandenberg Space Force Base

Loading…

Volgende Passages (komende 24 uur)

TLE

VersSource: CelesTrak SupGP

Epoch: Sep 15, 2026, 02:28 UTC

1 64710C 25142Q   26258.10326389 -.00047577  00000+0 -16550-2 0  2585
2 64710  70.0012 195.3217 0003129 271.2494   1.4808 15.29603875    10

Volg STARLINK-34447 in realtime met AllMySat

Download on the App Store